,,,PA_Meas_PMT16A,,PR_Meas_QMR101_102,,RH_Meas_QMH101,,SR_Meas_QMS101,,TA_Meas_QMH101,,GenWind,,GenWind,
date,time,status,PA,status,PR,status,RH,status,SR,status,TA,status,DirAvg,status,SpdAvg,
2009-02-05, 00:00:05,VALID,999.66,VALID,0,VALID,93.2187,VALID,0,VALID,23.6054,VALID,232,VALID,0.450391,
2009-02-05, 00:01:05,VALID,999.627,VALID,0,VALID,93.1729,VALID,0,VALID,23.6054,VALID,232,VALID,0.327734,
2009-02-05, 00:02:05,VALID,999.61,VALID,0,VALID,93.1119,VALID,0,VALID,23.5859,VALID,232,VALID,0.146875,
2009-02-05, 00:03:05,VALID,999.607,VALID,0,VALID,93.0127,VALID,0,VALID,23.5664,VALID,232,VALID,0,
2009-02-05, 00:04:05,VALID,999.576,VALID,0,VALID,93.0814,VALID,0,VALID,23.5877,VALID,232,VALID,0,
2009-02-05, 00:05:05,VALID,999.596,VALID,0,VALID,93.1043,VALID,0,VALID,23.5664,VALID,232,VALID,0,
2009-02-05, 00:06:05,VALID,999.57,VALID,0,VALID,93.4323,VALID,0,VALID,23.5859,VALID,232,VALID,0.0046875,
2009-02-05, 00:07:05,VALID,999.549,VALID,0,VALID,93.707,VALID,0,VALID,23.625,VALID,210,VALID,0.534766,
2009-02-05, 00:08:05,VALID,999.497,VALID,0,VALID,93.8443,VALID,0,VALID,23.6445,VALID,197,VALID,0.204688,
2009-02-05, 00:09:05,VALID,999.489,VALID,0,VALID,93.8748,VALID,0,VALID,23.664,VALID,197,VALID,0.258594,
2009-02-05, 00:10:05,VALID,999.462,VALID,0,VALID,93.7528,VALID,0,VALID,23.664,VALID,293,VALID,0.394531,
2009-02-05, 00:11:05,VALID,999.48,VALID,0,VALID,93.5391,VALID,0,VALID,23.6445,VALID,293,VALID,0.412891,
2009-02-05, 00:12:05,VALID,999.448,VALID,0,VALID,93.5086,VALID,0,VALID,23.625,VALID,293,VALID,0.239063,
2009-02-05, 00:13:05,VALID,999.428,VALID,0,VALID,93.4705,VALID,0,VALID,23.625,VALID,293,VALID,0.100391,
2009-02-05, 00:14:05,VALID,999.369,VALID,0,VALID,93.44,VALID,0,VALID,23.6054,VALID,293,VALID,0,
2009-02-05, 00:15:05,VALID,999.321,VALID,0,VALID,93.5163,VALID,0,VALID,23.5859,VALID,293,VALID,0,
2009-02-05, 00:16:05,VALID,999.295,VALID,0,VALID,93.5239,VALID,0,VALID,23.5664,VALID,293,VALID,0.494922,
2009-02-05, 00:17:05,VALID,999.288,VALID,0,VALID,93.4171,VALID,0,VALID,23.5664,VALID,293,VALID,0.408203,
2009-02-05, 00:18:05,VALID,999.286,VALID,0,VALID,93.4247,VALID,0,VALID,23.5664,VALID,297,VALID,0.469141,
2009-02-05, 00:19:05,VALID,999.273,VALID,0,VALID,93.5926,VALID,0,VALID,23.5451,VALID,50,VALID,0.719531,
2009-02-05, 00:20:05,VALID,999.261,VALID,0,VALID,93.852,VALID,0,VALID,23.5859,VALID,85,VALID,0.689453,
2009-02-05, 00:21:05,VALID,999.248,VALID,0,VALID,93.5163,VALID,0,VALID,23.5859,VALID,98,VALID,0.904688,
2009-02-05, 00:22:05,VALID,999.257,VALID,0,VALID,93.3408,VALID,0,VALID,23.5859,VALID,76,VALID,1.04492,
2009-02-05, 00:23:05,VALID,999.27,VALID,0,VALID,93.4094,VALID,0,VALID,23.625,VALID,59,VALID,0.419141,
2009-02-05, 00:24:05,VALID,999.273,VALID,0,VALID,93.6383,VALID,0,VALID,23.6445,VALID,67,VALID,0.805078,
2009-02-05, 00:25:05,VALID,999.232,VALID,0,VALID,93.6383,VALID,0,VALID,23.6445,VALID,118,VALID,0.317578,
2009-02-05, 00:26:05,VALID,999.219,VALID,0,VALID,93.6612,VALID,0,VALID,23.664,VALID,118,VALID,0.274219,
2009-02-05, 00:27:05,VALID,999.187,VALID,0,VALID,93.4628,VALID,0,VALID,23.664,VALID,298,VALID,0.696875,
2009-02-05, 00:28:05,VALID,999.177,VALID,0,VALID,93.5391,VALID,0,VALID,23.6445,VALID,331,VALID,0.185937,
2009-02-05, 00:29:05,VALID,999.157,VALID,0,VALID,93.6154,VALID,0,VALID,23.625,VALID,331,VALID,0.053125,
2009-02-05, 00:30:05,VALID,999.087,VALID,0,VALID,93.5697,VALID,0,VALID,23.6054,VALID,332,VALID,0.535937,
2009-02-05, 00:31:05,VALID,999.065,VALID,0,VALID,93.5697,VALID,0,VALID,23.6072,VALID,332,VALID,0.0585938,
2009-02-05, 00:32:05,VALID,999.036,VALID,0,VALID,93.6307,VALID,0,VALID,23.5859,VALID,332,VALID,0.125781,
2009-02-05, 00:33:05,VALID,998.998,VALID,0,VALID,93.7909,VALID,0,VALID,23.5664,VALID,41,VALID,0.925781,
2009-02-05, 00:34:05,VALID,998.998,VALID,0,VALID,93.8443,VALID,0,VALID,23.5682,VALID,2,VALID,0.774219,
2009-02-05, 00:35:05,VALID,998.987,VALID,0,VALID,93.8977,VALID,0,VALID,23.5664,VALID,32,VALID,1.20273,
2009-02-05, 00:36:05,VALID,998.986,VALID,0,VALID,93.9588,VALID,0,VALID,23.5664,VALID,20,VALID,1.01406,
2009-02-05, 00:37:05,VALID,998.976,VALID,0,VALID,93.7451,VALID,0,VALID,23.5487,VALID,31,VALID,1.38828,
2009-02-05, 00:38:05,VALID,998.945,VALID,0,VALID,93.5697,VALID,0,VALID,23.5274,VALID,36,VALID,1.38516,
2009-02-05, 00:39:05,VALID,998.917,VALID,0,VALID,93.6078,VALID,0,VALID,23.5487,VALID,54,VALID,1.33281,
2009-02-05, 00:40:05,VALID,998.924,VALID,0,VALID,93.8672,VALID,0,VALID,23.5469,VALID,53,VALID,1.30391,
2009-02-05, 00:41:05,VALID,998.908,VALID,0,VALID,93.974,VALID,0,VALID,23.5682,VALID,42,VALID,1.31641,
2009-02-05, 00:42:05,VALID,998.866,VALID,0,VALID,94.0122,VALID,0,VALID,23.5469,VALID,50,VALID,0.914844,
2009-02-05, 00:43:05,VALID,998.841,VALID,0,VALID,93.9588,VALID,0,VALID,23.5469,VALID,64,VALID,0.833594,
2009-02-05, 00:44:05,VALID,998.8,VALID,0,VALID,93.9893,VALID,0,VALID,23.5274,VALID,60,VALID,1.12305,
2009-02-05, 00:45:05,VALID,998.776,VALID,0,VALID,94.2029,VALID,0,VALID,23.5682,VALID,95,VALID,0.853125,
2009-02-05, 00:46:05,VALID,998.736,VALID,0,VALID,94.119,VALID,0,VALID,23.5061,VALID,65,VALID,0.619531,
2009-02-05, 00:47:05,VALID,998.695,VALID,0,VALID,94.0656,VALID,0,VALID,23.5274,VALID,65,VALID,0.538281,
2009-02-05, 00:48:05,VALID,998.647,VALID,0,VALID,94.0351,VALID,0,VALID,23.5079,VALID,65,VALID,0.378516,
2009-02-05, 00:49:05,VALID,998.602,VALID,0,VALID,93.9893,VALID,0,VALID,23.5079,VALID,65,VALID,0.314063,
2009-02-05, 00:50:05,VALID,998.597,VALID,0,VALID,94.0274,VALID,0,VALID,23.4884,VALID,65,VALID,0.319922,
2009-02-05, 00:51:05,VALID,998.56,VALID,0,VALID,94.0808,VALID,0,VALID,23.4884,VALID,65,VALID,0.122656,
2009-02-05, 00:52:05,VALID,998.551,VALID,0,VALID,94.1953,VALID,0,VALID,23.4884,VALID,65,VALID,0.404297,
2009-02-05, 00:53:05,VALID,998.494,VALID,0,VALID,94.3555,VALID,0,VALID,23.4884,VALID,98,VALID,0.755859,
2009-02-05, 00:54:05,VALID,998.479,VALID,0,VALID,94.4394,VALID,0,VALID,23.5079,VALID,100,VALID,0.903516,
2009-02-05, 00:55:05,VALID,998.494,VALID,0,VALID,94.531,VALID,0,VALID,23.4884,VALID,101,VALID,0.391797,
2009-02-05, 00:56:05,VALID,998.48,VALID,0,VALID,94.5081,VALID,0,VALID,23.5079,VALID,101,VALID,0.000390625,
2009-02-05, 00:57:05,VALID,998.427,VALID,0,VALID,94.5462,VALID,0,VALID,23.5079,VALID,101,VALID,0.245703,
2009-02-05, 00:58:05,VALID,998.447,VALID,0,VALID,94.5539,VALID,0,VALID,23.4884,VALID,100,VALID,0.455078,
2009-02-05, 00:59:05,VALID,998.448,VALID,0,VALID,94.5844,VALID,0,VALID,23.4884,VALID,88,VALID,0.510156,
2009-02-05, 01:00:05,VALID,998.416,VALID,0,VALID,94.6226,VALID,0,VALID,23.4884,VALID,65,VALID,0.417188,
2009-02-05, 01:01:05,VALID,998.429,VALID,0,VALID,94.6912,VALID,0,VALID,23.5097,VALID,64,VALID,0.521484,
2009-02-05, 01:02:05,VALID,998.412,VALID,0,VALID,94.7294,VALID,0,VALID,23.4884,VALID,66,VALID,0.569531,
2009-02-05, 01:03:05,VALID,998.342,VALID,0,VALID,94.8591,VALID,0,VALID,23.5079,VALID,83,VALID,0.613672,
2009-02-05, 01:04:05,VALID,998.36,VALID,0,VALID,94.8209,VALID,0,VALID,23.5079,VALID,84,VALID,0.727344,
2009-02-05, 01:05:05,VALID,998.347,VALID,0,VALID,94.8362,VALID,0,VALID,23.5079,VALID,84,VALID,0.158984,
2009-02-05, 01:06:05,VALID,998.32,VALID,0,VALID,94.8972,VALID,0,VALID,23.4884,VALID,39,VALID,0.459766,
2009-02-05, 01:07:05,VALID,998.305,VALID,0,VALID,94.9506,VALID,0,VALID,23.5079,VALID,299,VALID,0.533203,
2009-02-05, 01:08:05,VALID,998.263,VALID,0,VALID,95.004,VALID,0,VALID,23.5079,VALID,299,VALID,0.295312,
2009-02-05, 01:09:05,VALID,998.231,VALID,0,VALID,95.004,VALID,0,VALID,23.5061,VALID,32,VALID,0.645312,
2009-02-05, 01:10:05,VALID,998.203,VALID,0,VALID,94.9811,VALID,0,VALID,23.5079,VALID,77,VALID,0.48125,
2009-02-05, 01:11:05,VALID,998.22,VALID,0,VALID,94.9964,VALID,0,VALID,23.5274,VALID,96,VALID,0.676562,
2009-02-05, 01:12:05,VALID,998.171,VALID,0,VALID,94.9506,VALID,0,VALID,23.5274,VALID,89,VALID,0.823047,
2009-02-05, 01:13:05,VALID,998.152,VALID,0,VALID,94.9659,VALID,0,VALID,23.5451,VALID,91,VALID,0.834766,
2009-02-05, 01:14:05,VALID,998.125,VALID,0,VALID,94.8362,VALID,0,VALID,23.5664,VALID,100,VALID,0.806641,
2009-02-05, 01:15:05,VALID,998.14,VALID,0,VALID,94.5691,VALID,0,VALID,23.5664,VALID,151,VALID,0.989062,
2009-02-05, 01:16:05,VALID,998.14,VALID,0,VALID,94.386,VALID,0,VALID,23.6054,VALID,176,VALID,0.261328,
2009-02-05, 01:17:05,VALID,998.098,VALID,0,VALID,94.2792,VALID,0,VALID,23.6445,VALID,250,VALID,0.634375,
2009-02-05, 01:18:05,VALID,998.09,VALID,0,VALID,94.0961,VALID,0,VALID,23.6835,VALID,328,VALID,1.03477,
2009-02-05, 01:19:05,VALID,998.078,VALID,0,VALID,93.9969,VALID,0,VALID,23.6835,VALID,320,VALID,0.726953,
2009-02-05, 01:20:05,VALID,998.039,VALID,0,VALID,94.0122,VALID,0,VALID,23.664,VALID,287,VALID,0.442578,
2009-02-05, 01:21:05,VALID,997.972,VALID,0,VALID,94.0885,VALID,0,VALID,23.625,VALID,257,VALID,0.328516,
2009-02-05, 01:22:05,VALID,997.956,VALID,0,VALID,94.18,VALID,0,VALID,23.625,VALID,257,VALID,0,
2009-02-05, 01:23:05,VALID,997.958,VALID,0,VALID,94.2868,VALID,0,VALID,23.6054,VALID,257,VALID,0.368359,
2009-02-05, 01:24:05,VALID,997.964,VALID,0,VALID,94.3403,VALID,0,VALID,23.6463,VALID,235,VALID,0.539844,
2009-02-05, 01:25:05,VALID,997.937,VALID,0,VALID,94.5234,VALID,0,VALID,23.625,VALID,240,VALID,0.377734,
2009-02-05, 01:26:05,VALID,997.88,VALID,0,VALID,94.5539,VALID,0,VALID,23.664,VALID,211,VALID,0.277344,
2009-02-05, 01:27:05,VALID,997.861,VALID,0,VALID,94.5386,VALID,0,VALID,23.664,VALID,211,VALID,0.133203,
2009-02-05, 01:28:05,VALID,997.796,VALID,0,VALID,94.4776,VALID,0,VALID,23.664,VALID,211,VALID,0.326172,
2009-02-05, 01:29:05,VALID,997.771,VALID,0,VALID,94.4089,VALID,0,VALID,23.664,VALID,214,VALID,0.482422,
2009-02-05, 01:30:05,VALID,997.751,VALID,0,VALID,94.3937,VALID,0,VALID,23.664,VALID,214,VALID,0.383984,
2009-02-05, 01:31:05,VALID,997.737,VALID,0,VALID,94.3631,VALID,0,VALID,23.664,VALID,214,VALID,0.182422,
2009-02-05, 01:32:05,VALID,997.738,VALID,0,VALID,94.3021,VALID,0,VALID,23.6445,VALID,214,VALID,0,
2009-02-05, 01:33:05,VALID,997.69,VALID,0,VALID,94.2716,VALID,0,VALID,23.6445,VALID,214,VALID,0,
2009-02-05, 01:34:05,VALID,997.679,VALID,0,VALID,94.2563,VALID,0,VALID,23.6445,VALID,214,VALID,0.00429688,
2009-02-05, 01:35:05,VALID,997.615,VALID,0,VALID,94.3097,VALID,0,VALID,23.6445,VALID,214,VALID,0.422656,
2009-02-05, 01:36:04,VALID,997.603,VALID,0,VALID,94.2105,VALID,0,VALID,23.625,VALID,68,VALID,0.524609,
2009-02-05, 01:37:04,VALID,997.627,VALID,0,VALID,94.2792,VALID,0,VALID,23.6445,VALID,68,VALID,0.30625,
2009-02-05, 01:38:04,VALID,997.624,VALID,0,VALID,94.2487,VALID,0,VALID,23.625,VALID,68,VALID,0.124219,
2009-02-05, 01:39:04,VALID,997.617,VALID,0,VALID,94.2868,VALID,0,VALID,23.625,VALID,55,VALID,0.663281,
2009-02-05, 01:40:04,VALID,997.578,VALID,0,VALID,94.3937,VALID,0,VALID,23.625,VALID,69,VALID,0.997656,
2009-02-05, 01:41:04,VALID,997.595,VALID,0,VALID,94.4394,VALID,0,VALID,23.6445,VALID,80,VALID,1.20742,
2009-02-05, 01:42:04,VALID,997.566,VALID,0,VALID,94.3937,VALID,0,VALID,23.6853,VALID,79,VALID,1.35547,
2009-02-05, 01:43:04,VALID,997.558,VALID,0,VALID,94.4013,VALID,0,VALID,23.664,VALID,61,VALID,0.860547,
2009-02-05, 01:44:04,VALID,997.553,VALID,0,VALID,94.386,VALID,0,VALID,23.6445,VALID,52,VALID,0.964453,
2009-02-05, 01:45:04,VALID,997.546,VALID,0,VALID,94.3479,VALID,0,VALID,23.6445,VALID,37,VALID,0.545313,
2009-02-05, 01:46:04,VALID,997.534,VALID,0,VALID,94.1953,VALID,0,VALID,23.6445,VALID,327,VALID,0.878125,
2009-02-05, 01:47:04,VALID,997.534,VALID,0,VALID,94.1114,VALID,0,VALID,23.6658,VALID,322,VALID,0.363281,
2009-02-05, 01:48:04,VALID,997.516,VALID,0,VALID,93.9435,VALID,0,VALID,23.6445,VALID,322,VALID,0.361719,
2009-02-05, 01:49:04,VALID,997.527,VALID,0,VALID,93.8291,VALID,0,VALID,23.6658,VALID,210,VALID,0.277344,
2009-02-05, 01:50:04,VALID,997.509,VALID,0,VALID,93.7604,VALID,0,VALID,23.6835,VALID,198,VALID,0.394531,
2009-02-05, 01:51:04,VALID,997.479,VALID,0,VALID,93.5239,VALID,0,VALID,23.703,VALID,159,VALID,0.234766,
2009-02-05, 01:52:04,VALID,997.472,VALID,0,VALID,93.4171,VALID,0,VALID,23.703,VALID,100,VALID,0.458203,
2009-02-05, 01:53:04,VALID,997.453,VALID,0,VALID,93.2797,VALID,0,VALID,23.7225,VALID,38,VALID,0.369141,
2009-02-05, 01:54:04,VALID,997.424,VALID,0,VALID,93.0737,VALID,0,VALID,23.7616,VALID,293,VALID,0.307813,
2009-02-05, 01:55:04,VALID,997.433,VALID,0,VALID,93.2874,VALID,0,VALID,23.7811,VALID,296,VALID,0.691016,
2009-02-05, 01:56:04,VALID,997.432,VALID,0,VALID,93.3866,VALID,0,VALID,23.7811,VALID,297,VALID,0.928125,
2009-02-05, 01:57:04,VALID,997.392,VALID,0,VALID,93.5086,VALID,0,VALID,23.7616,VALID,306,VALID,0.828516,
2009-02-05, 01:58:04,VALID,997.398,VALID,0,VALID,93.3331,VALID,0,VALID,23.742,VALID,307,VALID,0.312109,
2009-02-05, 01:59:04,VALID,997.373,VALID,0,VALID,92.822,VALID,0,VALID,23.742,VALID,338,VALID,0.518359,
2009-02-05, 02:00:04,VALID,997.382,VALID,0,VALID,92.4481,VALID,0,VALID,23.7811,VALID,338,VALID,0.253125,
2009-02-05, 02:01:04,VALID,997.39,VALID,0,VALID,92.9288,VALID,0,VALID,23.8396,VALID,338,VALID,0.744531,
2009-02-05, 02:02:04,VALID,997.373,VALID,0,VALID,93.1882,VALID,0,VALID,23.8609,VALID,338,VALID,0.789453,
2009-02-05, 02:03:04,VALID,997.358,VALID,0,VALID,93.4476,VALID,0,VALID,23.8219,VALID,338,VALID,0.601172,
2009-02-05, 02:04:04,VALID,997.362,VALID,0,VALID,93.6078,VALID,0,VALID,23.7616,VALID,338,VALID,0.217578,
2009-02-05, 02:05:04,VALID,997.302,VALID,0,VALID,93.7146,VALID,0,VALID,23.742,VALID,338,VALID,0.174609,
2009-02-05, 02:06:04,VALID,997.278,VALID,0,VALID,93.7833,VALID,0,VALID,23.7243,VALID,338,VALID,0.298438,
2009-02-05, 02:07:04,VALID,997.267,VALID,0,VALID,93.8901,VALID,0,VALID,23.703,VALID,338,VALID,0.410547,
2009-02-05, 02:08:04,VALID,997.253,VALID,0,VALID,93.9893,VALID,0,VALID,23.703,VALID,338,VALID,0.407422,
2009-02-05, 02:09:04,VALID,997.229,VALID,0,VALID,94.1266,VALID,0,VALID,23.6835,VALID,338,VALID,0.389062,
2009-02-05, 02:10:04,VALID,997.243,VALID,0,VALID,94.1953,VALID,0,VALID,23.6835,VALID,338,VALID,0.0574219,
2009-02-05, 02:11:04,VALID,997.245,VALID,0,VALID,94.2487,VALID,0,VALID,23.664,VALID,338,VALID,0,
2009-02-05, 02:12:04,VALID,997.269,VALID,0,VALID,94.2945,VALID,0,VALID,23.664,VALID,338,VALID,0,
2009-02-05, 02:13:04,VALID,997.291,VALID,0,VALID,94.3555,VALID,0,VALID,23.6445,VALID,338,VALID,0,
2009-02-05, 02:14:04,VALID,997.301,VALID,0,VALID,94.3479,VALID,0,VALID,23.6445,VALID,338,VALID,0,
2009-02-05, 02:15:04,VALID,997.266,VALID,0,VALID,94.4852,VALID,0,VALID,23.6445,VALID,338,VALID,0.245312,
2009-02-05, 02:16:04,VALID,997.286,VALID,0,VALID,94.4547,VALID,0,VALID,23.6445,VALID,338,VALID,0.35625,
2009-02-05, 02:17:04,VALID,997.282,VALID,0,VALID,94.5081,VALID,0,VALID,23.6463,VALID,341,VALID,0.255469,
2009-02-05, 02:18:04,VALID,997.265,VALID,0,VALID,94.531,VALID,0,VALID,23.6232,VALID,52,VALID,1.22695,
2009-02-05, 02:19:04,VALID,997.272,VALID,0,VALID,94.5768,VALID,0,VALID,23.6445,VALID,55,VALID,0.918359,
2009-02-05, 02:20:04,VALID,997.283,VALID,0,VALID,94.5768,VALID,0,VALID,23.6853,VALID,69,VALID,0.688281,
2009-02-05, 02:21:04,VALID,997.269,VALID,0,VALID,94.4928,VALID,0,VALID,23.6445,VALID,72,VALID,0.654688,
2009-02-05, 02:22:04,VALID,997.237,VALID,0,VALID,94.5997,VALID,0,VALID,23.664,VALID,72,VALID,0.298047,
2009-02-05, 02:23:04,VALID,997.22,VALID,0,VALID,94.6149,VALID,0,VALID,23.664,VALID,72,VALID,0.275391,
2009-02-05, 02:24:04,VALID,997.218,VALID,0,VALID,94.6149,VALID,0,VALID,23.6853,VALID,76,VALID,0.476563,
2009-02-05, 02:25:04,VALID,997.242,VALID,0,VALID,94.6531,VALID,0,VALID,23.664,VALID,82,VALID,0.430078,
2009-02-05, 02:26:04,VALID,997.217,VALID,0,VALID,94.5768,VALID,0,VALID,23.6853,VALID,107,VALID,0.901563,
2009-02-05, 02:27:04,VALID,997.236,VALID,0,VALID,94.5234,VALID,0,VALID,23.6445,VALID,105,VALID,0.974609,
2009-02-05, 02:28:04,VALID,997.235,VALID,0,VALID,94.5462,VALID,0,VALID,23.6445,VALID,103,VALID,0.75625,
2009-02-05, 02:29:04,VALID,997.219,VALID,0,VALID,94.5768,VALID,0,VALID,23.664,VALID,102,VALID,0.613672,
2009-02-05, 02:30:04,VALID,997.22,VALID,0,VALID,94.531,VALID,0,VALID,23.664,VALID,100,VALID,0.9125,
2009-02-05, 02:31:04,VALID,997.206,VALID,0,VALID,94.6226,VALID,0,VALID,23.664,VALID,100,VALID,0.439453,
2009-02-05, 02:32:04,VALID,997.211,VALID,0,VALID,94.6302,VALID,0,VALID,23.6853,VALID,99,VALID,0.284766,
2009-02-05, 02:33:04,VALID,997.228,VALID,0,VALID,94.592,VALID,0,VALID,23.664,VALID,99,VALID,0.240625,
2009-02-05, 02:34:04,VALID,997.187,VALID,0,VALID,94.5615,VALID,0,VALID,23.6853,VALID,99,VALID,0.344141,
2009-02-05, 02:35:04,VALID,997.203,VALID,0,VALID,94.5844,VALID,0,VALID,23.664,VALID,99,VALID,0.483594,
2009-02-05, 02:36:04,VALID,997.209,VALID,0,VALID,94.6073,VALID,0,VALID,23.6853,VALID,104,VALID,0.830859,
2009-02-05, 02:37:04,VALID,997.208,VALID,0,VALID,94.6378,VALID,0,VALID,23.6835,VALID,109,VALID,1.23633,
2009-02-05, 02:38:04,VALID,997.203,VALID,0,VALID,94.4623,VALID,0,VALID,23.6835,VALID,109,VALID,1.34258,
2009-02-05, 02:39:04,VALID,997.244,VALID,0,VALID,94.386,VALID,0,VALID,23.6835,VALID,120,VALID,1.15313,
2009-02-05, 02:40:04,VALID,997.266,VALID,0,VALID,94.386,VALID,0,VALID,23.7225,VALID,130,VALID,0.7125,
2009-02-05, 02:41:04,VALID,997.29,VALID,0,VALID,94.3784,VALID,0,VALID,23.7634,VALID,130,VALID,0.922656,
2009-02-05, 02:42:04,VALID,997.299,VALID,0,VALID,94.2792,VALID,0,VALID,23.7616,VALID,124,VALID,1.05313,
2009-02-05, 02:43:04,VALID,997.294,VALID,0,VALID,94.1419,VALID,0,VALID,23.7811,VALID,129,VALID,1.54883,
2009-02-05, 02:44:04,VALID,997.318,VALID,0,VALID,93.8748,VALID,0,VALID,23.8219,VALID,126,VALID,1.45313,
2009-02-05, 02:45:04,VALID,997.303,VALID,0,VALID,93.8748,VALID,0,VALID,23.8201,VALID,128,VALID,1.07891,
2009-02-05, 02:46:04,VALID,997.327,VALID,0,VALID,93.7528,VALID,0,VALID,23.8396,VALID,117,VALID,1.1793,
2009-02-05, 02:47:04,VALID,997.365,VALID,0,VALID,93.3942,VALID,0,VALID,23.8396,VALID,113,VALID,1.78008,
2009-02-05, 02:48:04,VALID,997.389,VALID,0,VALID,93.3866,VALID,0,VALID,23.8786,VALID,111,VALID,1.44062,
2009-02-05, 02:49:04,VALID,997.364,VALID,0,VALID,93.0814,VALID,0,VALID,23.9195,VALID,109,VALID,1.2418,
2009-02-05, 02:50:04,VALID,997.415,VALID,0,VALID,93.1271,VALID,0,VALID,23.8982,VALID,121,VALID,1.08125,
2009-02-05, 02:51:04,VALID,997.369,VALID,0,VALID,92.7838,VALID,0,VALID,23.8982,VALID,115,VALID,1.28242,
2009-02-05, 02:52:04,VALID,997.405,VALID,0,VALID,92.8143,VALID,0,VALID,23.939,VALID,121,VALID,1.47734,
2009-02-05, 02:53:04,VALID,997.389,VALID,0,VALID,92.9059,VALID,0,VALID,23.9372,VALID,120,VALID,1.13945,
2009-02-05, 02:54:04,VALID,997.37,VALID,0,VALID,93.0737,VALID,0,VALID,23.9372,VALID,127,VALID,0.952734,
2009-02-05, 02:55:04,VALID,997.385,VALID,0,VALID,93.1271,VALID,0,VALID,23.9177,VALID,144,VALID,0.911719,
2009-02-05, 02:56:04,VALID,997.411,VALID,0,VALID,93.1729,VALID,0,VALID,23.939,VALID,149,VALID,0.958984,
2009-02-05, 02:57:04,VALID,997.411,VALID,0,VALID,93.1653,VALID,0,VALID,23.9177,VALID,140,VALID,0.816797,
2009-02-05, 02:58:04,VALID,997.394,VALID,0,VALID,93.2263,VALID,0,VALID,23.8982,VALID,144,VALID,0.404297,
2009-02-05, 02:59:04,VALID,997.416,VALID,0,VALID,93.2568,VALID,0,VALID,23.8982,VALID,165,VALID,0.689844,
2009-02-05, 03:00:04,VALID,997.386,VALID,0,VALID,93.3637,VALID,0,VALID,23.9,VALID,162,VALID,0.589063,
2009-02-05, 03:01:04,VALID,997.36,VALID,0,VALID,93.44,VALID,0,VALID,23.8591,VALID,147,VALID,0.977734,
2009-02-05, 03:02:04,VALID,997.341,VALID,0,VALID,93.562,VALID,0,VALID,23.8591,VALID,133,VALID,1.35586,
2009-02-05, 03:03:04,VALID,997.347,VALID,0,VALID,93.6307,VALID,0,VALID,23.8805,VALID,125,VALID,1.43594,
2009-02-05, 03:04:04,VALID,997.331,VALID,0,VALID,93.6688,VALID,0,VALID,23.8591,VALID,123,VALID,0.748438,
2009-02-05, 03:05:04,VALID,997.334,VALID,0,VALID,93.7299,VALID,0,VALID,23.8396,VALID,289,VALID,1.23867,
2009-02-05, 03:06:04,VALID,997.349,VALID,0,VALID,93.7223,VALID,0,VALID,23.8396,VALID,297,VALID,1.37305,
2009-02-05, 03:07:04,VALID,997.361,VALID,0,VALID,93.7299,VALID,0,VALID,23.8609,VALID,308,VALID,1.11523,
2009-02-05, 03:08:04,VALID,997.373,VALID,0,VALID,93.5315,VALID,0,VALID,23.8201,VALID,294,VALID,0.677734,
2009-02-05, 03:09:04,VALID,997.364,VALID,0,VALID,93.3408,VALID,0,VALID,23.8396,VALID,254,VALID,0.284766,
2009-02-05, 03:10:04,VALID,997.358,VALID,0,VALID,93.2645,VALID,0,VALID,23.8396,VALID,254,VALID,0.104687,
2009-02-05, 03:11:04,VALID,997.385,VALID,0,VALID,93.0661,VALID,0,VALID,23.8591,VALID,254,VALID,0.532422,
2009-02-05, 03:12:04,VALID,997.418,VALID,0,VALID,92.9517,VALID,0,VALID,23.8591,VALID,254,VALID,0.342187,
2009-02-05, 03:13:04,VALID,997.414,VALID,0,VALID,93.089,VALID,0,VALID,23.8591,VALID,331,VALID,0.710547,
2009-02-05, 03:14:04,VALID,997.438,VALID,0,VALID,93.2416,VALID,0,VALID,23.8591,VALID,333,VALID,0.839453,
2009-02-05, 03:15:04,VALID,997.433,VALID,0,VALID,93.4323,VALID,0,VALID,23.8591,VALID,335,VALID,0.957422,
2009-02-05, 03:16:04,VALID,997.443,VALID,0,VALID,93.4857,VALID,0,VALID,23.8414,VALID,1,VALID,0.819531,
2009-02-05, 03:17:04,VALID,997.467,VALID,0,VALID,93.5315,VALID,0,VALID,23.8201,VALID,21,VALID,0.910156,
2009-02-05, 03:18:04,VALID,997.443,VALID,0,VALID,93.501,VALID,0,VALID,23.8006,VALID,22,VALID,1.17227,
2009-02-05, 03:19:04,VALID,997.456,VALID,0,VALID,93.4934,VALID,0,VALID,23.8006,VALID,26,VALID,1.29141,
2009-02-05, 03:20:04,VALID,997.469,VALID,0,VALID,93.5239,VALID,0,VALID,23.7811,VALID,31,VALID,1.22617,
2009-02-05, 03:21:04,VALID,997.512,VALID,0,VALID,93.5697,VALID,0,VALID,23.7811,VALID,16,VALID,0.76875,
2009-02-05, 03:22:04,VALID,997.487,VALID,0,VALID,93.6154,VALID,0,VALID,23.7829,VALID,4,VALID,0.672266,
2009-02-05, 03:23:04,VALID,997.468,VALID,0,VALID,93.6917,VALID,0,VALID,23.742,VALID,345,VALID,0.886719,
2009-02-05, 03:24:04,VALID,997.476,VALID,0,VALID,93.8672,VALID,0,VALID,23.7225,VALID,345,VALID,0.486328,
2009-02-05, 03:25:04,VALID,997.459,VALID,0,VALID,93.913,VALID,0,VALID,23.7225,VALID,5,VALID,0.769922,
2009-02-05, 03:26:04,VALID,997.438,VALID,0,VALID,93.8748,VALID,0,VALID,23.703,VALID,29,VALID,0.565234,
2009-02-05, 03:27:04,VALID,997.474,VALID,0,VALID,93.8596,VALID,0,VALID,23.703,VALID,12,VALID,0.646094,
2009-02-05, 03:28:04,VALID,997.492,VALID,0,VALID,93.8748,VALID,0,VALID,23.7048,VALID,12,VALID,0.412109,
2009-02-05, 03:29:04,VALID,997.494,VALID,0,VALID,93.9206,VALID,0,VALID,23.6835,VALID,12,VALID,0.0117188,
2009-02-05, 03:30:04,VALID,997.48,VALID,0,VALID,93.9817,VALID,0,VALID,23.6835,VALID,12,VALID,0.148828,
2009-02-05, 03:31:04,VALID,997.488,VALID,0,VALID,94.0427,VALID,0,VALID,23.7048,VALID,12,VALID,0.167969,
2009-02-05, 03:32:04,VALID,997.529,VALID,0,VALID,94.0732,VALID,0,VALID,23.664,VALID,12,VALID,0.209766,
2009-02-05, 03:33:04,VALID,997.525,VALID,0,VALID,94.1419,VALID,0,VALID,23.6658,VALID,12,VALID,0.429688,
2009-02-05, 03:34:04,VALID,997.545,VALID,0,VALID,94.1419,VALID,0,VALID,23.664,VALID,12,VALID,0.445313,
2009-02-05, 03:35:04,VALID,997.513,VALID,0,VALID,94.1571,VALID,0,VALID,23.6445,VALID,12,VALID,0.229687,
2009-02-05, 03:36:04,VALID,997.533,VALID,0,VALID,94.2182,VALID,0,VALID,23.6445,VALID,12,VALID,0.300781,
2009-02-05, 03:37:04,VALID,997.522,VALID,0,VALID,94.2487,VALID,0,VALID,23.6463,VALID,12,VALID,0.614453,
2009-02-05, 03:38:04,VALID,997.54,VALID,0,VALID,94.3097,VALID,0,VALID,23.625,VALID,13,VALID,0.813281,
2009-02-05, 03:39:04,VALID,997.53,VALID,0,VALID,94.3555,VALID,0,VALID,23.6658,VALID,13,VALID,0.250781,
2009-02-05, 03:40:04,VALID,997.542,VALID,0,VALID,94.3631,VALID,0,VALID,23.6445,VALID,13,VALID,0.00273437,
2009-02-05, 03:41:04,VALID,997.536,VALID,0,VALID,94.3784,VALID,0,VALID,23.625,VALID,13,VALID,0.00859375,
2009-02-05, 03:42:04,VALID,997.531,VALID,0,VALID,94.4242,VALID,0,VALID,23.6445,VALID,13,VALID,0.415234,
2009-02-05, 03:43:04,VALID,997.544,VALID,0,VALID,94.3784,VALID,0,VALID,23.6445,VALID,13,VALID,0.160547,
2009-02-05, 03:44:04,VALID,997.547,VALID,0,VALID,94.325,VALID,0,VALID,23.6445,VALID,13,VALID,0.282422,
2009-02-05, 03:45:04,VALID,997.554,VALID,0,VALID,94.3174,VALID,0,VALID,23.6658,VALID,13,VALID,0.539063,
2009-02-05, 03:46:04,VALID,997.604,VALID,0,VALID,94.2563,VALID,0,VALID,23.6445,VALID,13,VALID,0.430078,